INJ248 LGRP-LCLK

Flight info

Callsign INJ248
Flight time 0h 51m
Altitude 35000
Route VANES M601 RDS UM601 EVENO DCT DASNI M601 BONEK
Aircraft B738/M-LGTS/L

Departure

Time 2026-05-04 20:06
Airport Rhodes International Airport "Diagoras" (LGRP)

Arrival

Time 2026-05-04 20:57
Airport Larnaca International Airport (LCLK)
Time Latitude Longitude Altitude Speed Heading
2026-05-04 20:00 36.40483 28.09283 28 ft 0 kts 64°
2026-05-04 20:00 36.40487 28.09293 28 ft 8 kts 65°
2026-05-04 20:01 36.40541 28.09379 28 ft 13 kts 39°
2026-05-04 20:01 36.40596 28.09455 28 ft 13 kts 64°
2026-05-04 20:01 36.40627 28.09560 28 ft 11 kts 71°
2026-05-04 20:01 36.40644 28.09620 28 ft 4 kts 71°
2026-05-04 20:02 36.40646 28.09627 28 ft 0 kts 71°
2026-05-04 20:02 36.40656 28.09657 28 ft 13 kts 68°
2026-05-04 20:02 36.40706 28.09825 28 ft 27 kts 69°
2026-05-04 20:02 36.40767 28.10032 28 ft 26 kts 69°
2026-05-04 20:03 36.40821 28.10222 28 ft 10 kts 71°
2026-05-04 20:03 36.40833 28.10264 28 ft 9 kts 71°
2026-05-04 20:03 36.40863 28.10362 28 ft 13 kts 69°
2026-05-04 20:03 36.40902 28.10430 28 ft 7 kts 20°
2026-05-04 20:04 36.40934 28.10430 28 ft 8 kts 349°
2026-05-04 20:04 36.40989 28.10387 28 ft 10 kts 309°
2026-05-04 20:04 36.41023 28.10295 28 ft 11 kts 266°
2026-05-04 20:04 36.41008 28.10237 28 ft 0 kts 249°
2026-05-04 20:05 36.40940 28.10003 28 ft 67 kts 249°
2026-05-04 20:05 36.40695 28.09169 28 ft 137 kts 252°
2026-05-04 20:05 36.40328 28.07894 439 ft 164 kts 253°
2026-05-04 20:06 36.39928 28.06547 1253 ft 171 kts 255°
2026-05-04 20:06 36.39636 28.05098 1976 ft 176 kts 266°
2026-05-04 20:06 36.39468 28.03562 2669 ft 183 kts 270°
2026-05-04 20:06 36.39325 28.01953 3363 ft 191 kts 271°
2026-05-04 20:07 36.38895 28.00324 4029 ft 210 kts 244°
2026-05-04 20:07 36.37870 27.99169 4653 ft 226 kts 215°
2026-05-04 20:07 36.36256 27.98671 5305 ft 242 kts 182°
2026-05-04 20:07 36.34596 27.99160 5827 ft 254 kts 152°
2026-05-04 20:08 36.33232 28.00566 6347 ft 256 kts 122°
2026-05-04 20:08 36.32518 28.02574 6890 ft 257 kts 94°
2026-05-04 20:08 36.32582 28.04786 7462 ft 258 kts 70°
2026-05-04 20:08 36.33164 28.06934 8030 ft 269 kts 69°
2026-05-04 20:09 36.33446 28.09259 8584 ft 284 kts 82°
2026-05-04 20:09 36.33365 28.11784 9229 ft 298 kts 94°
2026-05-04 20:09 36.32846 28.14304 10054 ft 304 kts 105°
2026-05-04 20:09 36.32107 28.16795 10812 ft 310 kts 107°
2026-05-04 20:10 36.31364 28.19353 11290 ft 326 kts 106°
2026-05-04 20:10 36.30621 28.21997 11647 ft 343 kts 106°
2026-05-04 20:10 36.29853 28.24811 11979 ft 360 kts 105°
2026-05-04 20:10 36.29112 28.27576 12454 ft 370 kts 105°
2026-05-04 20:11 36.28292 28.30680 13056 ft 378 kts 105°
2026-05-04 20:11 36.27482 28.33771 13695 ft 384 kts 105°
2026-05-04 20:11 36.26656 28.36941 14350 ft 389 kts 105°
2026-05-04 20:11 36.25822 28.40154 14995 ft 394 kts 105°
2026-05-04 20:12 36.24979 28.43407 15628 ft 398 kts 105°
2026-05-04 20:12 36.24126 28.46704 16244 ft 403 kts 105°
2026-05-04 20:12 36.23274 28.49997 16839 ft 408 kts 105°
2026-05-04 20:12 36.22398 28.53359 17424 ft 412 kts 105°
2026-05-04 20:13 36.21513 28.56752 17996 ft 417 kts 105°
2026-05-04 20:13 36.20606 28.60223 18567 ft 422 kts 105°
2026-05-04 20:13 36.19697 28.63692 19121 ft 425 kts 105°
2026-05-04 20:13 36.18785 28.67171 19717 ft 428 kts 105°
2026-05-04 20:14 36.17861 28.70688 20286 ft 431 kts 105°
2026-05-04 20:14 36.16940 28.74188 20846 ft 433 kts 105°
2026-05-04 20:14 36.15993 28.77783 21379 ft 436 kts 105°
2026-05-04 20:14 36.15060 28.81322 21886 ft 439 kts 105°
2026-05-04 20:15 36.14108 28.84928 22330 ft 444 kts 105°
2026-05-04 20:15 36.13226 28.88265 22771 ft 446 kts 105°
2026-05-04 20:15 36.12214 28.92129 23298 ft 448 kts 105°
2026-05-04 20:15 36.11262 28.95786 23790 ft 450 kts 105°
2026-05-04 20:16 36.10298 28.99472 24256 ft 452 kts 105°
2026-05-04 20:16 36.09317 29.03204 24705 ft 454 kts 105°
2026-05-04 20:16 36.08350 29.06874 25127 ft 457 kts 105°
2026-05-04 20:16 36.07348 29.10662 25444 ft 462 kts 105°
2026-05-04 20:17 36.06341 29.14463 25855 ft 464 kts 105°
2026-05-04 20:17 36.05338 29.18264 26239 ft 466 kts 105°
2026-05-04 20:17 36.04342 29.22056 26791 ft 464 kts 105°
2026-05-04 20:17 36.03332 29.25867 27111 ft 468 kts 106°
2026-05-04 20:18 36.02303 29.29724 27242 ft 476 kts 106°
2026-05-04 20:18 36.01257 29.33625 27516 ft 479 kts 107°
2026-05-04 20:18 36.00204 29.37544 27894 ft 481 kts 107°
2026-05-04 20:18 35.99146 29.41472 28234 ft 482 kts 107°
2026-05-04 20:19 35.98087 29.45399 28620 ft 483 kts 107°
2026-05-04 20:19 35.97023 29.49338 28928 ft 485 kts 107°
2026-05-04 20:19 35.95965 29.53259 29242 ft 486 kts 107°
2026-05-04 20:19 35.94897 29.57226 29692 ft 484 kts 107°
2026-05-04 20:20 35.93839 29.61153 30123 ft 482 kts 107°
2026-05-04 20:20 35.92803 29.65052 30455 ft 483 kts 107°
2026-05-04 20:20 35.91778 29.68893 30817 ft 482 kts 107°
2026-05-04 20:20 35.90715 29.72851 31154 ft 482 kts 107°
2026-05-04 20:21 35.89667 29.76730 31483 ft 482 kts 107°
2026-05-04 20:21 35.88605 29.80644 31858 ft 481 kts 107°
2026-05-04 20:21 35.86472 29.88485 32494 ft 481 kts 107°
2026-05-04 20:22 35.85408 29.92388 32817 ft 481 kts 107°
2026-05-04 20:22 35.84341 29.96300 33100 ft 482 kts 107°
2026-05-04 20:22 35.83274 30.00219 33401 ft 482 kts 107°
2026-05-04 20:22 35.82258 30.04162 33628 ft 483 kts 106°
2026-05-04 20:23 35.81276 30.08082 33931 ft 483 kts 106°
2026-05-04 20:23 35.80285 30.12024 34223 ft 483 kts 106°
2026-05-04 20:23 35.79286 30.15986 34495 ft 483 kts 106°
2026-05-04 20:23 35.78285 30.19940 34734 ft 484 kts 107°
2026-05-04 20:24 35.77619 30.22566 34896 ft 485 kts 107°
2026-05-04 20:24 35.76611 30.26534 34979 ft 488 kts 107°
2026-05-04 20:24 35.74314 30.35547 34990 ft 487 kts 107°
2026-05-04 20:25 35.73079 30.40387 34985 ft 484 kts 107°
2026-05-04 20:25 35.71110 30.48228 34990 ft 487 kts 107°
2026-05-04 20:26 35.69098 30.56212 34986 ft 490 kts 107°
2026-05-04 20:26 35.67044 30.64222 34979 ft 491 kts 107°
2026-05-04 20:27 35.64972 30.72244 34968 ft 492 kts 108°
2026-05-04 20:27 35.62898 30.80248 34953 ft 495 kts 108°
2026-05-04 20:28 35.60824 30.88322 34947 ft 494 kts 107°
2026-05-04 20:28 35.58778 30.96389 34946 ft 494 kts 107°
2026-05-04 20:29 35.56733 31.04416 34943 ft 495 kts 108°
2026-05-04 20:29 35.54668 31.12492 34944 ft 494 kts 108°
2026-05-04 20:30 35.53635 31.16524 34671 ft 493 kts 108°
2026-05-04 20:30 35.52607 31.20529 34057 ft 491 kts 108°
2026-05-04 20:30 35.51612 31.24403 33371 ft 492 kts 108°
2026-05-04 20:30 35.50595 31.28419 32645 ft 494 kts 107°
2026-05-04 20:31 35.49573 31.32452 32041 ft 492 kts 107°
2026-05-04 20:31 35.48552 31.36461 31513 ft 489 kts 107°
2026-05-04 20:31 35.47542 31.40415 30991 ft 486 kts 107°
2026-05-04 20:31 35.46532 31.44351 30472 ft 482 kts 107°
2026-05-04 20:32 35.45521 31.48284 29957 ft 479 kts 107°
2026-05-04 20:32 35.44520 31.52165 29454 ft 476 kts 107°
2026-05-04 20:32 35.43535 31.55980 28964 ft 473 kts 107°
2026-05-04 20:32 35.42542 31.59820 28468 ft 470 kts 107°
2026-05-04 20:33 35.41555 31.63625 27975 ft 467 kts 107°
2026-05-04 20:33 35.40574 31.67405 27484 ft 463 kts 107°
2026-05-04 20:33 35.39612 31.71163 26995 ft 460 kts 107°
2026-05-04 20:33 35.38648 31.74895 26508 ft 457 kts 107°
2026-05-04 20:34 35.37683 31.78607 26021 ft 454 kts 107°
2026-05-04 20:34 35.36834 31.81856 25590 ft 452 kts 107°
2026-05-04 20:34 35.35864 31.85555 25103 ft 449 kts 107°
2026-05-04 20:34 35.34924 31.89134 24629 ft 446 kts 107°
2026-05-04 20:35 35.33975 31.92737 24151 ft 443 kts 107°
2026-05-04 20:35 35.33029 31.96324 23673 ft 440 kts 107°
2026-05-04 20:35 35.32092 31.99877 23199 ft 437 kts 107°
2026-05-04 20:35 35.31157 32.03417 22723 ft 434 kts 107°
2026-05-04 20:36 35.30235 32.06924 22251 ft 432 kts 107°
2026-05-04 20:36 35.29320 32.10418 21780 ft 429 kts 107°
2026-05-04 20:36 35.28410 32.13891 21310 ft 426 kts 107°
2026-05-04 20:36 35.27507 32.17325 20844 ft 424 kts 107°
2026-05-04 20:37 35.26621 32.20692 20384 ft 421 kts 107°
2026-05-04 20:37 35.25717 32.24123 19915 ft 419 kts 107°
2026-05-04 20:37 35.24826 32.27498 19454 ft 416 kts 107°
2026-05-04 20:37 35.23936 32.30867 18993 ft 414 kts 107°
2026-05-04 20:38 35.23053 32.34206 18535 ft 411 kts 107°
2026-05-04 20:38 35.22173 32.37530 18080 ft 409 kts 108°
2026-05-04 20:38 35.21297 32.40834 17628 ft 406 kts 108°
2026-05-04 20:38 35.20427 32.44114 17180 ft 404 kts 108°
2026-05-04 20:39 35.19572 32.47363 16737 ft 401 kts 107°
2026-05-04 20:39 35.18738 32.50557 16296 ft 394 kts 108°
2026-05-04 20:39 35.17909 32.53713 15865 ft 385 kts 108°
2026-05-04 20:39 35.17099 32.56804 15446 ft 377 kts 108°
2026-05-04 20:40 35.16303 32.59861 15029 ft 376 kts 108°
2026-05-04 20:40 35.15502 32.62906 14612 ft 375 kts 108°
2026-05-04 20:40 35.14703 32.65920 14202 ft 373 kts 108°
2026-05-04 20:40 35.13905 32.68916 13791 ft 372 kts 109°
2026-05-04 20:41 35.13103 32.71915 13380 ft 370 kts 109°
2026-05-04 20:41 35.12310 32.74877 12975 ft 369 kts 109°
2026-05-04 20:41 35.11504 32.77878 12566 ft 367 kts 109°
2026-05-04 20:41 35.10710 32.80830 12170 ft 365 kts 109°
2026-05-04 20:42 35.09923 32.83756 11776 ft 358 kts 109°
2026-05-04 20:42 35.09151 32.86620 11391 ft 349 kts 109°
2026-05-04 20:42 35.08412 32.89363 11107 ft 339 kts 109°
2026-05-04 20:42 35.07689 32.92047 10913 ft 326 kts 109°
2026-05-04 20:43 35.06983 32.94625 10730 ft 314 kts 110°
2026-05-04 20:43 35.06581 32.96032 10636 ft 307 kts 108°
2026-05-04 20:43 35.05923 32.98331 10480 ft 297 kts 110°
2026-05-04 20:43 35.05254 33.00657 10315 ft 286 kts 110°
2026-05-04 20:44 35.04592 33.02958 10152 ft 286 kts 110°
2026-05-04 20:44 35.03930 33.05256 9994 ft 291 kts 110°
2026-05-04 20:44 35.03254 33.07599 9764 ft 295 kts 110°
2026-05-04 20:44 35.02573 33.09959 9494 ft 295 kts 110°
2026-05-04 20:45 35.01891 33.12322 9218 ft 292 kts 110°
2026-05-04 20:45 35.01222 33.14641 8937 ft 287 kts 110°
2026-05-04 20:45 35.00565 33.16931 8692 ft 285 kts 110°
2026-05-04 20:45 34.99907 33.19213 8460 ft 286 kts 110°
2026-05-04 20:46 34.99242 33.21514 8224 ft 288 kts 110°
2026-05-04 20:46 34.98584 33.23786 7989 ft 289 kts 110°
2026-05-04 20:46 34.97911 33.26107 7745 ft 289 kts 110°
2026-05-04 20:46 34.97241 33.28417 7500 ft 288 kts 110°
2026-05-04 20:47 34.96568 33.30738 7273 ft 287 kts 110°
2026-05-04 20:47 34.95928 33.32946 7081 ft 286 kts 110°
2026-05-04 20:47 34.95262 33.35239 6850 ft 286 kts 110°
2026-05-04 20:47 34.94597 33.37524 6616 ft 286 kts 110°
2026-05-04 20:48 34.93932 33.39803 6381 ft 285 kts 110°
2026-05-04 20:48 34.93260 33.42109 6142 ft 286 kts 110°
2026-05-04 20:48 34.92605 33.44364 5906 ft 283 kts 110°
2026-05-04 20:48 34.91951 33.46616 5670 ft 282 kts 110°
2026-05-04 20:49 34.91293 33.48877 5433 ft 281 kts 110°
2026-05-04 20:49 34.90640 33.51112 5200 ft 281 kts 110°
2026-05-04 20:49 34.89989 33.53335 4964 ft 281 kts 111°
2026-05-04 20:49 34.89327 33.55594 4722 ft 279 kts 111°
2026-05-04 20:50 34.88673 33.57826 4485 ft 278 kts 111°
2026-05-04 20:50 34.88030 33.60018 4254 ft 278 kts 111°
2026-05-04 20:50 34.87581 33.62290 4009 ft 276 kts 93°
2026-05-04 20:50 34.87866 33.64564 3831 ft 272 kts 70°
2026-05-04 20:51 34.88618 33.66661 3664 ft 269 kts 62°
2026-05-04 20:51 34.89446 33.68703 3491 ft 262 kts 62°
2026-05-04 20:51 34.90226 33.70665 3383 ft 260 kts 62°
2026-05-04 20:51 34.90987 33.72663 3141 ft 255 kts 64°
2026-05-04 20:52 34.91687 33.74600 2990 ft 243 kts 65°
2026-05-04 20:52 34.92349 33.76460 2848 ft 236 kts 65°
2026-05-04 20:52 34.93218 33.78093 2546 ft 230 kts 37°
2026-05-04 20:52 34.94661 33.78727 2383 ft 220 kts 357°
2026-05-04 20:53 34.96044 33.78112 2251 ft 216 kts 319°
2026-05-04 20:53 34.96830 33.76582 2115 ft 215 kts 283°
2026-05-04 20:53 34.96747 33.74837 2006 ft 203 kts 252°
2026-05-04 20:53 34.96085 33.73416 2007 ft 184 kts 234°
2026-05-04 20:54 34.95314 33.72257 1835 ft 170 kts 230°
2026-05-04 20:54 34.94644 33.71379 1636 ft 160 kts 227°
2026-05-04 20:54 34.93891 33.70439 1472 ft 149 kts 227°
2026-05-04 20:54 34.93172 33.69549 1284 ft 146 kts 227°
2026-05-04 20:55 34.92466 33.68675 1110 ft 147 kts 226°
2026-05-04 20:55 34.91749 33.67789 931 ft 147 kts 226°
2026-05-04 20:55 34.91036 33.66908 753 ft 146 kts 226°
2026-05-04 20:55 34.90319 33.66023 573 ft 146 kts 226°
2026-05-04 20:56 34.89607 33.65142 395 ft 146 kts 226°
2026-05-04 20:56 34.88899 33.64269 217 ft 143 kts 226°
2026-05-04 20:56 34.88206 33.63413 30 ft 141 kts 226°
2026-05-04 20:56 34.87598 33.62653 16 ft 99 kts 225°
2026-05-04 20:57 34.87242 33.62215 16 ft 49 kts 225°
2026-05-04 20:57 34.87063 33.61982 16 ft 34 kts 235°
2026-05-04 20:57 34.86981 33.61783 16 ft 13 kts 253°
2026-05-04 20:57 34.86971 33.61745 16 ft 0 kts 253°